Regional Weather Roundup
Issued by NWS Charleston, WV

Home | Current Version | Previous Version | Text Only | Print | Product List | Glossary On
Versions: 1 2 3 4 5 6 7 8 9 10 11 12 13 14 15 16 17 18 19 20 21 22 23 24 25 26 27
000
ASUS41 KRLX 031110
RWRRLX
Regional Weather Roundup
National Weather Service Charleston WV
700 AM EDT TUE AUG 03 2021

Note: "fair" indicates few or no clouds below 12,000 feet with no
significant weather and/or obstructions to visibility.

WVZ003-031200-
Northern Panhandle of West Virginia

CITY           SKY/WX    TMP DP  RH WIND       PRES   REMARKS
WHEELING       PTCLDY    57  52  83 CALM      30.12S
$$

WVZ009-031200-
Northwest West Virginia

CITY           SKY/WX    TMP DP  RH WIND       PRES   REMARKS
PARKERSBURG    CLEAR     53  51  93 CALM      30.10R
$$

WVZ006-031200-
Western West Virginia

CITY           SKY/WX    TMP DP  RH WIND       PRES   REMARKS
HUNTINGTON     CLEAR     60  57  89 NE5       30.06R
$$

WVZ015-031200-
West Central West Virginia

CITY           SKY/WX    TMP DP  RH WIND       PRES   REMARKS
CHARLESTON     MOCLDY    59  58  96 NE3       30.07R
$$

WVZ509-031-039-031200-
North Central West Virginia

CITY           SKY/WX    TMP DP  RH WIND       PRES   REMARKS
MORGANTOWN     MOCLDY    60  56  86 CALM      30.12R
CLARKSBURG     PTCLDY    56  54  93 CALM      30.10S
BUCKHANNON     CLOUDY    57  57 100 CALM      30.10S
$$

WVZ515-516-025-034-042-507-031200-
Southern West Virginia

CITY           SKY/WX    TMP DP  RH WIND       PRES   REMARKS
BECKLEY        CLOUDY    63  57  81 SE7       30.12R
LOGAN          CLOUDY    64  57  77 MISG      30.07S
PINEVILLE      CLOUDY    63  59  88 MISG      30.13S
BLUEFIELD      MOCLDY    62  57  83 E5        30.14R
LEWISBURG      CLOUDY    59  55  88 CALM      30.14S
$$

WVZ525-526-031200-
Northern Mountains of West Virginia

CITY           SKY/WX    TMP DP  RH WIND       PRES   REMARKS
ELKINS         MOCLDY    52  48  86 CALM      30.14S
$$

WVZ502-504-052-031200-
Eastern Panhandle of West Virginia

CITY           SKY/WX    TMP DP  RH WIND       PRES   REMARKS
PETERSBURG     CLOUDY    61  61 100 CALM      30.14S
CUMBERLAND     CLOUDY    55  53  90 CALM      30.18R
MARTINSBURG    CLOUDY    56  54  93 CALM      30.11S
$$

OHZ075-083-KYZ101-031200-
Southeast Ohio/Northeast Kentucky

CITY           SKY/WX    TMP DP  RH WIND       PRES   REMARKS
ATHENS         CLEAR     53  53 100 CALM      30.09S
JACKSON        FAIR      50  50 100 CALM      30.09S
ASHLAND        MOCLDY    58  58 100 CALM      30.07R
$$



USA.gov is the U.S. government's official web portal to all federal, state and local government web resources and services.